Flag for U.S.A. Weather past 2 weeks in Greensboro, North Carolina, U.S.A.

51 °F

Partly cloudy.

Feels Like: 51 °F
Forecast: 47 / 71 °F
Wind: No wind

Location: Piedmont Triad International Airport

Current Time: Nov 27, 2015 at 11:41:05 PM

Latest Report: Nov 27, 2015 at 10:54 PM

Visibility: 10 mi

Pressure: 30.35 "Hg

Humidity: 89%

Dew point: 48 °F

Location of GreensboroLocation

Historic Weather in Greensboro — Graph


Greensboro temperature yesterday

Maximum temperature yesterday: 64 °F (at 1:54 PM)
Minimum temperature yesterday: 38 °F (at 12:54 AM)
Average temperature yesterday: 51 °F

Past Weeks' High & Low Weather Summary

High70 °F (Nov 19, 2:54 PM)100% (Nov 19, 3:54 AM)30.75 "Hg (Nov 19, 3:54 AM)
Low27 °F (Nov 24, 5:54 AM)16% (Nov 13, 1:54 PM)29.84 "Hg (Nov 12, 9:54 PM)
Average50 °F55%30.26 "Hg
* Reported Nov 12 9:54 PM — Nov 27 9:54 PM, Greensboro, Weather by CustomWeather, © 2015

Note: Actual official high and low records may vary slightly from our data, if they occured in-between our weather recording intervals... More about our weather records


Greensboro weather history for previous 24 hours

Time TempWeatherWind HumidityBarometerVisibility
9:54 PM
Fri, Nov 27
51 °FPassing clouds.No wind92%30.37 "Hg10 mi
8:54 PM52 °FHigh level clouds.No wind89%30.38 "Hg10 mi
7:54 PM53 °FPassing clouds.No wind89%30.37 "Hg10 mi
6:54 PM57 °FPassing clouds.No wind78%30.37 "Hg10 mi
5:54 PM59 °FPassing clouds.No wind72%30.37 "Hg10 mi
4:54 PM63 °FBroken clouds.3 mph60%30.37 "Hg10 mi
3:54 PM65 °FOvercast.No wind59%30.38 "Hg10 mi
2:54 PM67 °FOvercast.No wind55%30.40 "Hg10 mi
1:54 PM66 °FBroken clouds.No wind56%30.44 "Hg10 mi
12:54 PM66 °FPartly sunny.3 mph56%30.46 "Hg10 mi
11:54 AM64 °FPartly sunny.3 mph65%30.50 "Hg10 mi
10:54 AM59 °FPartly sunny.3 mph75%30.53 "Hg10 mi
9:54 AM56 °FPartly sunny.3 mph77%30.55 "Hg10 mi
8:54 AM51 °FPartly sunny.3 mph86%30.55 "Hg10 mi
7:54 AM47 °FPassing clouds.3 mph93%30.55 "Hg10 mi
6:54 AM43 °FPassing clouds.No wind97%30.54 "Hg9 mi
5:54 AM42 °FClear.3 mph96%30.54 "Hg8 mi
4:54 AM43 °FClear.No wind100%30.54 "Hg7 mi
3:54 AM44 °FClear.No wind96%30.55 "Hg8 mi
2:54 AM44 °FClear.No wind93%30.57 "Hg10 mi
1:54 AM47 °FClear.No wind93%30.57 "Hg10 mi
12:54 AM46 °FClear.No wind93%30.58 "Hg10 mi
11:54 PM
Thu, Nov 26
49 °FClear.No wind90%30.60 "Hg10 mi
Weather by CustomWeather, © 2015

See weather overviewHow to use our weather pages